www.pogodaiklimat.ru

Погода и климат >> Архив погоды >> Казахстан >> Тайпак


ПОГОДА в Тайпаке

АРХИВ ПОГОДЫ в Тайпаке

Время (UTC), дата Ветер
(напр.,м/с)
 
Видим.   Явления Облачность Т
(С)
Тd
(С)
f
(%)
Тe
(С)
Тes
(С)
Комфортность P
(гПа)
Po
(гПа)
Тmin
(С)
Tmax
(С)
R
(мм)
R24
(мм)
S
(см)
15 11.10 штиль 0 н/о 9/9 600 м
[Cb calv]
+17.0 -3.0 25 +17 +17 1017.7 1017.5 +21.4
18 11.10 СЗ 2 н/о 10/10 600 м
[Cb calv]
+14.0 -4.7 27 +14 +14 1018.0 1017.8 +21.4
21 11.10 З 2 н/о 10/10 600 м
[Cb calv]
+13.2 -4.1 30 +13 +13 1018.0 1017.8
00 12.10 СЗ 2 н/о 10/10 600 м
[Cb calv]
+12.4 -0.9 40 +12 +12 1018.2 1018.0
03 12.10 С 2 10 км 10/10 600 м
[Cb calv]
+10.2 +1.1 53 +9 +9 1017.9 1017.7
06 12.10 СЗ 2 10 км 9/0
[Ac trans]
+12.1 +1.9 50 +11 +13 1018.8 1018.6 +9.9
09 12.10 З 2 10 км 3/0
[Ac trans]
+16.7 +4.5 44 +17 +22 1018.4 1018.2
12 12.10 З 2 10 км 3/0
[Ac trans]
+17.9 +3.6 39 +18 +20 1017.9 1017.7
15 12.10 СЗ 2 н/о 3/0
[Ac trans]
+12.3 +1.3 47 +12 +12 1019.1 1018.9 +19.2
18 12.10 СЗ 2 н/о ясно +8.4 +1.1 60 +7 +7 1019.2 1019.0 +19.2
21 12.10 СЗ 2 н/о ясно +6.6 -0.8 59 +5 +5 1018.9 1018.7
00 13.10 З 2 н/о ясно +3.2 -3.2 63 +1 +1 1018.5 1018.3
03 13.10 СЗ 2 10 км 8/0
[Ac trans]
+2.8 -1.7 72 0 0 1018.6 1018.4
06 13.10 СЗ 2 10 км 8/0
[Ac trans]
+12.5 +3.0 52 +12 +14 1018.7 1018.5 +2.6
09 13.10 З 2 10 км 8/0
[Ac trans]
+17.1 +1.1 34 +17 +20 1017.1 1016.9
12 13.10 З 2 10 км 9/9 600 м
[Cb calv]
+15.3 -0.7 33 +15 +16 1016.3 1016.1
15 13.10 З 2 н/о 10/10 600 м
[Cb calv]
+12.8 +3.8 54 +12 +12 1016.6 1016.4 +18.3
18 13.10 штиль 0 н/о в посл. час ливневой дождь 10/10 600 м
[Cb calv]
+11.1 +7.1 76 +11 +11 1016.7 1016.5 +18.3
21 13.10 штиль 0 н/о ясно +8.5 +5.5 81 +8 +8 1016.3 1016.1
00 14.10 штиль 0 н/о ясно +4.4 +3.2 92 +3 +3 1016.2 1016.0
03 14.10 штиль 0 200 м туман ?/? +3.3 +2.8 97 +2 +2 1016.2 1016.0
06 14.10 ЮЗ 2 10 км слабый дождь {туман} 10/10 600 м
[Sc]
+9.4 +7.6 89 +8 +8 1016.6 1016.4 +3.1 0.0
09 14.10 Ю 4 10 км {дождь} 8/0
[Ac trans]
+15.4 +8.1 62 +15 +17 1015.4 1015.2
12 14.10 ЮЗ 2 10 км {дождь} 10/10 600 м
[Sc]
+13.2 +10.2 82 +12 +12 1014.7 1014.5
15 14.10 Ю 2 н/о 10/10 600 м
[Sc]
+13.0 +10.5 85 +12 +12 1014.3 1014.1 +16.3
18 14.10 Ю 2 н/о 10/10 600 м
[Sc]
+12.6 +10.3 86 +12 +12 1013.5 1013.3 +16.3 0.0
21 14.10 штиль 0 н/о 6/0
[Ac trans]
+12.2 +9.4 83 +12 +12 1013.3 1013.1
00 15.10 ЮЗ 2 н/о слабый дождь 10/10 600 м
[Sc]
+11.1 +9.0 87 +10 +10 1013.1 1012.9
03 15.10 ЮЗ 2 10 км {дождь} 10/10 600 м
[Sc]
+10.9 +9.3 90 +10 +10 1013.0 1012.8
06 15.10 ЮЗ 2 10 км слабый дождь 10/0 600 м
[As op]
+11.3 +10.5 95 +10 +11 1012.8 1012.6 +10.6 2
09 15.10 Ю 2 10 км {дождь} 10/0 600 м
[As op]
+12.2 +10.5 89 +11 +12 1011.5 1011.3
12 15.10 Ю 2 10 км слабый дождь 10/0 600 м
[As op]
+12.0 +10.9 93 +11 +11 1009.5 1009.3
15 15.10 ЮЗ 2 н/о {дождь} 10/0 600 м
[As op]
+11.2 +10.4 95 +10 +10 1008.0 1007.8 +13.0
18 15.10 штиль 0 н/о туман {дождь} ?/? +9.1 +8.9 99 +8 +8 1005.9 1005.7 +13.0 2
21 15.10 штиль 0 н/о туман ?/? +7.0 +8.7 100 +6 +6 1003.0 1002.8
00 16.10 штиль 0 н/о {туман} 10/10 600 м
[Cb calv]
+6.4 +4.8 89 +5 +5 1001.2 1001.0
03 16.10 штиль 0 10 км 10/10 600 м
[Cb calv]
+7.2 +5.1 86 +6 +6 999.9 999.7
06 16.10 штиль 0 10 км слабый дождь 10/0 600 м
[As op]
+7.8 +5.8 87 +7 +8 1000.2 1000.0 +6.1
09 16.10 штиль 0 10 км {дождь} 10/0 600 м
[As op]
+9.1 +4.1 71 +9 +10 999.1 998.9
12 16.10 ЮВ 2 10 км слабый дождь 10/0 600 м
[As op]
+8.1 +5.9 86 +6 +6 998.7 998.5
15 16.10 штиль 0 н/о {дождь} 10/0 600 м
[As op]
+7.7 +4.8 82 +7 +7 998.7 998.5 +10.0
18 16.10 З 2 н/о {дождь} 10/0 600 м
[As op]
+7.3 +6.2 93 +5 +5 1000.7 1000.5 +10.0 5
21 16.10 З 2 н/о {дождь} 10/0 600 м
[As op]
+6.4 +5.7 95 +4 +4 1001.8 1001.6
00 17.10 З 2 н/о {дождь} 10/0 600 м
[As op]
+5.8 +5.1 95 +3 +3 1002.7 1002.5
03 17.10 З 2 10 км 10/0 600 м
[As op]
+5.4 +4.5 94 +3 +3 1003.6 1003.4
06 17.10 З 2 10 км 10/0 600 м
[As op]
+6.2 +3.8 85 +4 +4 1004.8 1004.6 +5.1 0.8
09 17.10 З 2 10 км 10/0 600 м
[As op]
+7.7 +4.0 77 +6 +7 1005.2 1005.0
12 17.10 З 2 10 км слабый дождь 10/0 600 м
[As op]
+8.0 +5.3 83 +6 +6 1005.8 1005.6
15 17.10 штиль 0 н/о {дождь} 10/0 600 м
[As op]
+7.8 +5.8 87 +7 +7 1006.9 1006.7 +9.2
18 17.10 штиль 0 н/о {дождь} 10/10 600 м
[Sc]
+7.5 +6.2 91 +7 +7 1007.8 1007.6 +9.2 0.0
21 17.10 штиль 0 н/о 10/10 600 м
[Sc]
+7.3 +6.2 93 +6 +6 1008.5 1008.3
00 18.10 штиль 0 н/о 10/10 600 м
[Sc]
+6.5 +5.4 93 +5 +5 1009.9 1009.7
03 18.10 штиль 0 10 км {дождь} 10/10 600 м
[Sc]
+8.0 +7.4 96 +7 +7 1012.0 1011.8
06 18.10 СЗ 2 10 км {дождь} 8/0
[Ac trans]
+8.7 +6.4 85 +7 +8 1014.9 1014.7 +6.2 0.6
09 18.10 З 2 10 км 8/8 600 м
[Sc]
+10.8 +5.6 70 +10 +11 1016.4 1016.2

 

Местоположение метеостанции Тайпак (Западно-Казахстанская область, Казахстан): широта 49.05 долгота 51.87 высота над уровнем моря 2 м.

В архиве по умолчанию представлена погода в Тайпаке за последнюю неделю. Архивные данные за месяц целиком и за предыдущие месяцы, начиная с января 2011 года, Вы можете получить, выбрав интересующий диапазон дат из раскрывающегося списка и нажав кнопку "Ввод!".

Внимание! Время в таблицах - всемирное. Для получения местного времени необходимо прибавить поправку, которая в Тайпаке равна 5 ч.

Смотрите также архив погоды в соседних городах и на ближайших метеорологических станциях:

Погода в Индерборском (Атырауская область, Казахстан) (62 км)
Погода в Карабау (Атырауская область, Казахстан) (102 км)
Погода в Жангала (Западно-Казахстанская область, Казахстан) (116 км)
Погода в Каратобе (Западно-Казахстанская область, Казахстан) (131 км)
Погода в Чапаево (Западно-Казахстанская область, Казахстан) (137 км)
Погода в Джамбейты (Западно-Казахстанская область, Казахстан) (143 км)
Погода в Махамбете (Атырауская область, Казахстан) (155 км)
Погода в Жалпактале (Западно-Казахстанская область, Казахстан) (186 км)
Погода в Макате (Атырауская область, Казахстан) (189 км)
Погода в Анкаты (Западно-Казахстанская область, Казахстан) (198 км)

Пояснения к столбцам:

Ветер - указаны скорость ветра в м/с - средняя за 10 мин, порывы в срок и между сроками (в фигурных скобках) и направление, откуда дует ветер: С - северный, СВ - северо-восточный, В - восточный, ЮВ - юго-восточный, Ю - южный, ЮЗ - юго-западный, З - западный, СЗ - северо-западный.
Видимость - горизонтальная дальность видимости в метрах или километрах. При видимости от 1 до 10 км при отсутствии осадков обычно наблюдается дымка, при ухудшении видимости до 1 км и менее - туман. В сухую погоду видимость может ухудшаться дымом, пылью или мглою.
Явления - указаны атмосферные явления, наблюдавшиеся в срок или в последний час перед сроком; фигурными скобками обозначены явления, наблюдавшиеся между сроками (за 1-3 часа до срока); квадратными скобками обозначены град или гололедные отложения с указанием их диаметра в мм.
Облачность - указаны через наклонную черту общая и нижняя облачность в баллах и высота нижней границы облаков в метрах; квадратными скобками обозначены формы облаков: Ci - перистые, Cs - перисто-слоистые, Cc - перисто-кучевые, Ac - высококучевые, As - высокослоистые, Sc - слоисто-кучевые, Ns - слоисто-дождевые, Cu - кучевые, Cb - кучево-дождевые. Подробнее классификацию облаков см. в Атласе облаков (PDF).
T - Температура воздуха - температура, измеренная на высоте 2 м над землей.
Td - Температура точки росы - температура, при понижении до которой содержащийся в воздухе водяной пар достигнет насыщения.
f - Относительная влажность воздуха - влажноcть воздуха, измеренная на высоте 2 м над землей.
Te - Эффективная температура - температура, которую ощущает одетый по сезону человек в тени. Характеристика душности погоды. При расчете учитывается влияние влажности воздуха и скорости ветра на теплоощущения человека.
Tes - Эффективная температура на солнце - температура, которую ощущает человек, с поправкой на солнечный нагрев. Характеристика знойности погоды. Зависит от высоты солнца над горизонтом, облачности и скорости ветра. Ночью, в пасмурную погоду, а также при ветре 12 м/с и более поправка равна нулю.
P - Атмосферное давление - приведенное к уровню моря атмосферное давление.
Po - Атмосферное давление - измеренное на уровне метеостанции атмосферное давление.
Tmin - Минимальная температура - минимум температуры воздуха на высоте 2 м над землей.
Tmax - Максимальная температура - максимум температуры воздуха на высоте 2 м над землей.
R - Количество осадков - Количество выпавших осадков за период времени, мм. При наведении курсора мыши на число - период времени, за который выпало указанное количество осадков.
R24 - Количество осадков - Количество выпавших осадков за 24 часа, мм.
S - Снежный покров - Высота снежного покрова, см. При наведении курсора мыши на число - состояние снежного покрова и степень покрытия местности в баллах.